This is the latest recevied weather packets stored in our database for station/object KE8GJZ-2. If no packets are shown the sender has not sent any weather packets the latest 10 day(s).
| Time | Temp. | Humidity | Pressure | Rain* | Wind** | Luminosity | Snow |
|---|---|---|---|---|---|---|---|
| 1778028444 | 8.89° C | 63% | 1008.4 hPa | 0 mm | - | 1 W/m² | - |
| 1778028142 | 8.89° C | 63% | 1008.3 hPa | 0 mm | - | 2 W/m² | - |
| 1778027837 | 8.89° C | 62% | 1008.4 hPa | 0 mm | - | 6 W/m² | - |
| 1778027534 | 8.89° C | 62% | 1008.3 hPa | 0 mm | - | 10 W/m² | - |
| 1778027230 | 8.89° C | 59% | 1008.3 hPa | 0 mm | - | 13 W/m² | - |
| 1778026926 | 9.44° C | 57% | 1008.3 hPa | 0 mm | - | 14 W/m² | - |
| 1778026622 | 9.44° C | 57% | 1008.2 hPa | 0 mm | - | 17 W/m² | - |
| 1778026320 | 10° C | 59% | 1008.2 hPa | 0 mm | - | 23 W/m² | - |
| 1778026017 | 10° C | 56% | 1008.4 hPa | 0 mm | - | 28 W/m² | - |
| 1778025714 | 10° C | 55% | 1008.4 hPa | 0 mm | - | 35 W/m² | - |
| 1778025412 | 10° C | 54% | 1008.5 hPa | 0 mm | - | 47 W/m² | - |
| 1778025109 | 10.56° C | 55% | 1008.5 hPa | 0 mm | - | 49 W/m² | - |
| 1778024806 | 10.56° C | 53% | 1008.3 hPa | 0 mm | - | 45 W/m² | - |
| 1778024503 | 10.56° C | 54% | 1008.3 hPa | 0 mm | - | 42 W/m² | - |
| 1778024200 | 10.56° C | 53% | 1008.5 hPa | 0 mm | - | 36 W/m² | - |
| 1778023897 | 10.56° C | 52% | 1008.4 hPa | 0 mm | - | 35 W/m² | - |
| 1778023595 | 10.56° C | 53% | 1008.1 hPa | 0 mm | - | 35 W/m² | - |
| 1778023292 | 10.56° C | 55% | 1008.4 hPa | 0 mm | - | 37 W/m² | - |
| 1778022989 | 10.56° C | 53% | 1008.3 hPa | 0 mm | - | 44 W/m² | - |
| 1778022688 | 10.56° C | 51% | 1008.4 hPa | 0 mm | - | 49 W/m² | - |
| 1778022386 | 10.56° C | 50% | 1008.4 hPa | 0 mm | - | 50 W/m² | - |
| 1778022081 | 10.56° C | 51% | 1008.7 hPa | 0 mm | - | 55 W/m² | - |
| 1778021778 | 10.56° C | 51% | 1008.6 hPa | 0 mm | - | 65 W/m² | - |
| 1778021474 | 10.56° C | 53% | 1008.6 hPa | 0 mm | - | 72 W/m² | - |
| 1778021171 | 10.56° C | 54% | 1008.4 hPa | 0 mm | - | 86 W/m² | - |
* Rain latest hour (hover to see other rain measurements)
** Current wind speed in m/s (hover to see current wind gust speed)